This is the latest recevied weather packets stored in our database for station/object OK1JIL-13. If no packets are shown the sender has not sent any weather packets the latest 10 day(s).
| Time | Temp. | Humidity | Pressure | Rain* | Wind** | Luminosity | Snow |
|---|---|---|---|---|---|---|---|
| 1777627398 | 15.56° C | 30% | 1029.6 hPa | - | - | - | - |
| 1777626798 | 15° C | 30% | 1029.6 hPa | - | - | - | - |
| 1777626198 | 15° C | 29% | 1029.7 hPa | - | - | - | - |
| 1777625598 | 16.67° C | 27% | 1029.7 hPa | - | - | - | - |
| 1777625001 | 13.89° C | 31% | 1029.7 hPa | - | - | - | - |
| 1777624397 | 16.11° C | 30% | 1029.6 hPa | - | - | - | - |
| 1777623797 | 14.44° C | 31% | 1029.6 hPa | - | - | - | - |
| 1777623197 | 16.11° C | 32% | 1029.5 hPa | - | - | - | - |
| 1777622597 | 12.78° C | 34% | 1029.7 hPa | - | - | - | - |
| 1777621997 | 13.33° C | 33% | 1029.7 hPa | - | - | - | - |
| 1777621397 | 12.78° C | 36% | 1029.7 hPa | - | - | - | - |
| 1777620797 | 12.22° C | 37% | 1029.6 hPa | - | - | - | - |
| 1777620197 | 13.89° C | 37% | 1029.6 hPa | - | - | - | - |
| 1777619597 | 12.78° C | 36% | 1029.6 hPa | - | - | - | - |
| 1777618997 | 13.33° C | 36% | 1029.5 hPa | - | - | - | - |
| 1777618397 | 12.78° C | 36% | 1029.3 hPa | - | - | - | - |
| 1777617797 | 15° C | 33% | 1029.2 hPa | - | - | - | - |
| 1777617197 | 13.89° C | 36% | 1029.2 hPa | - | - | - | - |
| 1777616597 | 12.22° C | 39% | 1029.2 hPa | - | - | - | - |
| 1777615997 | 15° C | 37% | 1029.2 hPa | - | - | - | - |
| 1777615397 | 12.22° C | 39% | 1029.1 hPa | - | - | - | - |
| 1777614797 | 13.33° C | 36% | 1029.1 hPa | - | - | - | - |
| 1777614197 | 11.11° C | 43% | 1029.1 hPa | - | - | - | - |
| 1777613597 | 12.22° C | 41% | 1029.1 hPa | - | - | - | - |
| 1777612997 | 12.22° C | 40% | 1028.9 hPa | - | - | - | - |
* Rain since midnight (hover to see other rain measurements)
** Current wind speed in m/s (hover to see current wind gust speed)